FW9019 Weather Reports


Display with metric or nautical units.
time (UTC)temp
F
wind
direction
speed
MPH
gust
MPH
rain 1hr
in
rain 24hr
in
rain mn
in
humidity
%
barometer
mb
20260502194039 54 166 1.0 2.0 0.00 0.00 0.00 31 1017.7
20260502193101 53 142 1.0 2.0 0.00 0.00 0.00 32 1017.7
20260502192041 53 179 1.0 3.0 0.00 0.00 0.00 34 1017.8
20260502191041 53 241 1.0 3.0 0.00 0.00 0.00 33 1017.7
20260502185043 52 157 2.0 5.0 0.00 0.00 0.00 33 1018.1
20260502184023 53 211 1.0 3.0 0.00 0.00 0.00 34 1018.1
20260502183105 54 186 1.0 3.0 0.00 0.00 0.00 35 1018.1
20260502182045 53 235 1.0 3.0 0.00 0.00 0.00 35 1018.3
20260502181025 53 205 1.0 3.0 0.00 0.00 0.00 33 1018.2
20260502180107 53 141 2.0 5.0 0.00 0.00 0.00 34 1018.4
20260502170111 52 189 1.0 3.0 0.00 0.00 0.00 35 1018.7
20260502164052 51 143 1.0 3.0 0.00 0.00 0.00 34 1018.8
20260502163136 52 145 1.0 2.0 0.00 0.00 0.00 34 1018.9
20260502162022 52 216 2.0 5.0 0.00 0.00 0.00 33 1018.9
20260502161104 52 172 1.0 3.0 0.00 0.00 0.00 32 1019.0
20260502152058 52 196 1.0 2.0 0.00 0.00 0.00 31 1019.1
20260502151108 51 200 2.0 3.0 0.00 0.00 0.00 31 1019.0
20260502123028 44 254 1.0 2.0 0.00 0.00 0.00 45 1018.2
20260502122037 42 254 0.0 1.0 0.00 0.00 0.00 52 1018.1
20260502121017 39 252 0.0 1.0 0.00 0.00 0.00 58 1018.2
20260502120130 39 252 0.0 1.0 0.00 0.00 0.00 61 1018.1
20260502115141 39 251 0.0 1.0 0.00 0.00 0.00 63 1018.0
20260502114050 38 252 1.0 1.0 0.00 0.00 0.00 66 1017.7
20260502113032 38 0.0 0.0 0.00 0.00 0.00 69 1017.6
20260502112112 38 251 0.0 2.0 0.00 0.00 0.00 70 1017.6
20260502111021 37 252 0.0 1.0 0.00 0.00 0.00 71 1017.7
20260502110103 37 0.0 0.0 0.00 0.00 0.00 72 1017.7
20260502105044 38 0.0 0.0 0.00 0.00 0.00 71 1017.9
20260502104054 38 251 1.0 5.0 0.00 0.00 0.00 71 1017.9
20260502103105 38 0.0 0.0 0.00 0.00 0.00 71 1018.0
20260502102046 38 0.0 0.0 0.00 0.00 0.00 71 1017.9
20260502101026 37 0.0 0.0 0.00 0.00 0.00 71 1017.8
20260502100109 37 0.0 0.0 0.00 0.00 0.00 72 1017.7
20260502091030 36 0.0 0.0 0.00 0.00 0.00 75 1017.6
20260502090111 36 0.0 0.0 0.00 0.00 0.00 75 1017.5
20260502071139 38 0.0 0.0 0.00 0.00 0.00 73 1017.4
20260502070018 38 0.0 0.0 0.00 0.00 0.00 73 1017.6
20260502065029 39 0.0 0.0 0.00 0.00 0.00 74 1017.7
20260502064041 38 0.0 0.0 0.00 0.00 0.00 73 1017.7
20260502063052 38 0.0 0.0 0.00 0.00 0.00 73 1017.7
20260502062122 37 0.0 0.0 0.00 0.00 0.00 74 1017.7
20260502061112 37 0.0 0.0 0.00 0.00 0.00 75 1017.7
20260502060053 37 0.0 0.0 0.00 0.00 0.00 76 1017.8
20260502055103 37 0.0 0.0 0.00 0.00 0.00 76 1018.0
20260502054045 37 0.0 0.0 0.00 0.00 0.00 75 1017.9
20260502053023 38 0.0 0.0 0.00 0.00 0.00 75 1017.7
20260502052034 38 0.0 0.0 0.00 0.00 0.00 75 1017.7
20260502051117 37 0.0 0.0 0.00 0.00 0.00 76 1017.5
20260502050127 37 0.0 0.0 0.00 0.00 0.00 75 1017.7
20260502045108 38 0.0 0.0 0.00 0.00 0.00 73 1017.8
20260502044118 38 0.0 0.0 0.00 0.00 0.00 72 1017.8
20260502043027 39 0.0 0.0 0.00 0.00 0.00 72 1017.7
20260502042110 38 0.0 0.0 0.00 0.00 0.00 74 1017.7
20260502041018 38 0.0 0.0 0.00 0.00 0.00 74 1017.8
20260502040029 39 0.0 0.0 0.00 0.00 0.00 73 1017.6
20260502035113 39 0.0 0.0 0.00 0.00 0.00 71 1017.7
20260502034020 40 0.0 0.0 0.00 0.00 0.00 70 1017.7
20260502033103 41 0.0 0.0 0.00 0.00 0.00 69 1017.6
20260502032114 41 0.0 0.0 0.00 0.00 0.00 69 1017.6
20260502031053 41 223 0.0 1.0 0.00 0.00 0.00 70 1017.8
20260502030033 41 0.0 0.0 0.00 0.00 0.00 72 1017.9
20260502025116 41 0.0 0.0 0.00 0.00 0.00 72 1017.8
20260502024045 40 0.0 0.0 0.00 0.00 0.00 77 1017.5
20260502023036 40 0.0 0.0 0.00 0.00 0.00 78 1017.5
20260502022138 40 0.0 0.0 0.00 0.00 0.00 77 1017.4
20260502021057 40 0.0 0.0 0.00 0.00 0.00 76 1017.2
20260502020038 40 0.0 0.0 0.00 0.00 0.00 76 1017.0
20260502015039 41 0.0 0.0 0.00 0.00 0.00 76 1016.9
20260502014028 41 0.0 0.0 0.00 0.00 0.00 74 1016.7
20260502013110 41 0.0 0.0 0.00 0.00 0.00 72 1016.5
20260502012020 41 0.0 0.0 0.00 0.00 0.00 69 1016.3
20260502011101 42 0.0 0.0 0.00 0.00 0.00 67 1016.1
20260502010041 44 0.0 0.0 0.00 0.00 0.00 65 1015.9
20260502005022 45 0.0 0.0 0.00 0.00 0.00 62 1016.1
20260502004104 45 0.0 0.0 0.00 0.00 0.00 61 1015.9
20260502003103 45 0.0 0.0 0.00 0.00 0.00 59 1015.8
20260502002024 46 222 0.0 1.0 0.00 0.00 0.00 58 1015.5
20260502001106 46 223 0.0 2.0 0.00 0.00 0.00 57 1015.5
20260502000117 47 223 0.0 1.0 0.00 0.00 0.00 56 1015.6
20260501235045 47 223 0.0 1.0 0.00 0.00 0.00 55 1015.5
20260501234037 47 225 1.0 2.0 0.00 0.00 0.00 56 1015.6
20260501233119 48 147 0.0 1.0 0.00 0.00 0.00 56 1015.5
20260501232028 48 147 1.0 2.0 0.00 0.00 0.00 56 1015.5
20260501231039 48 225 0.0 1.0 0.00 0.00 0.00 56 1015.6
20260501230018 48 140 1.0 2.0 0.00 0.00 0.00 55 1015.7
20260501225033 48 131 1.0 2.0 0.00 0.00 0.00 57 1015.7
20260501224112 48 130 1.0 2.0 0.00 0.00 0.00 58 1015.7
20260501223052 47 116 1.0 3.0 0.00 0.00 0.00 64 1015.9
20260501222032 46 116 0.0 1.0 0.00 0.00 0.00 66 1016.0
20260501221113 46 116 0.0 2.0 0.00 0.00 0.00 66 1016.2
20260501220054 46 116 1.0 2.0 0.00 0.00 0.00 65 1016.2
20260501215034 47 133 1.0 5.0 0.00 0.00 0.00 61 1016.2
20260501214116 49 135 1.0 2.0 0.00 0.00 0.00 56 1015.9
20260501213056 50 141 0.0 2.0 0.00 0.00 0.00 53 1015.7
20260501212035 51 141 1.0 3.0 0.00 0.00 0.00 47 1015.6
20260501211046 52 140 0.0 2.0 0.00 0.00 0.00 46 1015.4
20260501210026 53 140 1.0 3.0 0.00 0.00 0.00 45 1015.4
20260501205128 52 140 1.0 2.0 0.00 0.00 0.00 46 1015.5
20260501204108 52 140 1.0 1.0 0.00 0.00 0.00 46 1015.7
20260501203028 52 140 1.0 2.0 0.00 0.00 0.00 46 1015.6
20260501202110 52 140 1.0 3.0 0.00 0.00 0.00 45 1015.6
20260501201050 54 140 1.0 2.0 0.00 0.00 0.00 43 1015.8
20260501200101 55 216 1.0 2.0 0.00 0.00 0.00 43 1015.8
20260501195112 53 215 2.0 3.0 0.00 0.00 0.00 46 1015.9